Location: Laan Hart van Zuid
(52.2563°N, 6.7904°E)
Time: 10:23:47
(UTC+01:00)

ISS - Visible Passes

Search period start: 11 February 2026 00:00
Search period end: 21 February 2026 00:00
Orbit: 413 x 429 km, 51.6° (Epoch: 10 February)

Date Brightness Start Highest point End Pass type
(mag) Time Alt. Az. Time Alt. Az. Time Alt. Az.
11 Feb -0.6 07:08:19 10° SSE 07:09:43 12° SE 07:11:06 10° ESE visible
13 Feb -1.5 07:09:19 10° SSW 07:12:05 24° SSE 07:14:51 10° E visible
14 Feb -1.1 06:22:51 10° S 06:25:11 18° SE 06:27:31 10° E visible
15 Feb -0.9 05:36:48 10° SSE 05:38:19 13° SE 05:39:50 10° ESE visible
15 Feb -2.7 07:11:20 10° SW 07:14:32 44° SSE 07:17:44 10° E visible
16 Feb -2.3 06:24:31 10° SW 06:27:31 33° SSE 06:30:35 10° E visible
17 Feb -1.9 05:39:31 21° S 05:40:31 25° SSE 05:43:19 10° E visible
18 Feb -1.1 04:54:24 17° SE 04:54:24 17° SE 04:55:56 10° E visible
18 Feb -3.3 06:27:24 16° WSW 06:29:55 57° SSE 06:33:13 10° E visible
19 Feb -3.0 05:42:11 39° SSW 05:42:49 45° SSE 05:46:02 10° E visible
20 Feb -1.7 04:56:54 26° ESE 04:56:54 26° ESE 04:58:48 10° E visible
20 Feb -3.7 06:29:52 17° WSW 06:32:20 78° S 06:35:41 10° E visible
